Regional Weather Roundup
Issued by NWS

Home | Current Version | Previous Version | Graphics & Text | Print | Product List | Glossary On
Versions: 1 2 3 4 5 6 7 8 9 10 11 12 13 14 15 16 17 18 19 20 21 22 23 24 25 26 27 28 29 30 31 32 33 34 35 36 37 38 39 40 41 42 43 44 45 46 47 48 49 50
684
ASUS45 KSLC 231210
RWRUT

UTAH REGIONAL WEATHER ROUNDUP
NATIONAL WEATHER SERVICE SALT LAKE CITY UT
600 AM MDT TUE MAY 23 2017

UTZ001>011-023>025-231300-

NORTHERN UTAH

CITY           SKY/WX    TMP DP  RH WIND       PRES   REMARKS
BRIGHAM CITY   CLEAR     51  43  72 NW7       30.18S
HILL AFB       CLEAR     54  39  57 SE15      30.19R
LOGAN          CLEAR     47  43  86 W3        30.21S
OGDEN          CLEAR     56  40  55 N9        30.17S
SALT LAKE CITY PTCLDY    57  44  62 SE10      30.17S
TOOELE VALLEY  CLEAR     50  41  71 S8        30.18S
WENDOVER       PTCLDY    58  38  47 NW3       30.17R
HEBER CITY     CLEAR     43  36  75 CALM      30.27R
WEST JORDAN    CLEAR     54  47  77 S7        30.20S

$$

UTZ011>015-024>027-231300-

CENTRAL/NORTHEAST UTAH

CITY           SKY/WX    TMP DP  RH WIND       PRES   REMARKS
PROVO AIRPORT  CLEAR     52  39  61 SW5       30.22R
MOAB/CANYONLAN CLEAR     53  26  35 E7        30.22R
DELTA          CLEAR     45  37  76 NE3       30.20R
PRICE          CLEAR     48  29  47 N8        30.28F
ROOSEVELT      CLEAR     37  34  87 SW5       30.33S WCI  34
VERNAL         CLEAR     38  34  85 NW5       30.31S WCI  34

$$

UTZ013>016-019>022-027-231300-

SOUTHERN UTAH

CITY           SKY/WX    TMP DP  RH WIND       PRES   REMARKS
BRYCE CANYON   PTCLDY    31  25  78 NE7       30.33S WCI  24
CEDAR CITY     PTCLDY    42  31  64 SE5       30.22S
MILFORD        CLEAR     41  32  70 SW7       30.20S
ST GEORGE      SUNNY     61  29  29 SE7       30.09R
HANKSVILLE     CLEAR     52  32  46 CALM      30.26R
BLANDING       CLEAR     45  33  62 NW7       30.28R

$$

REGIONAL REPORTS     COLORADO/ARIZONA

CITY           SKY/WX    TMP DP  RH WIND       PRES   REMARKS
CRAIG, CO      CLOUDY    34  31  88 CALM      30.34S
GRAND JUNCTION CLEAR     46  33  60 VRB3      30.26R
RIFLE, CO      CLEAR     37  32  82 SE8       30.30R WCI  31
MONTROSE, CO   MOCLDY    45  35  68 NW7       30.29R
CORTEZ, CO     CLEAR     49  35  58 NW7       30.18S
COLORADO CITY    N/A     46  30  53 CALM      30.21S
PAGE, AZ       CLEAR     60  33  36 E3        30.15R
GRAND CANYON   PTCLDY    33  26  75 E5        30.26S WCI  29
KINGMAN, AZ    CLEAR     58  25  28 CALM      30.06R
FLAGSTAFF, AZ  CLEAR     43  25  49 NE8       30.26R

$$

REGIONAL REPORTS    NEVADA/IDAHO/WYOMING

CITY           SKY/WX    TMP DP  RH WIND       PRES   REMARKS
LAS VEGAS, NV  CLEAR     75  32  20 S5        29.97R
ELY, NY        CLEAR     34  25  69 S10       30.28S WCI  26
ELKO, NV       PTCLDY    46  39  76 CALM      30.24R
POCATELLO, ID  CLEAR     40  37  89 CALM      30.22S
BURLEY, ID     CLEAR     47  42  83 CALM      30.18S
FORT BRIDGER,    N/A     39  32  75 CALM      30.35S
EVANSTON, WY   CLOUDY    41  35  79 E7        30.32R
ROCK SPRINGS,  CLEAR     34  33  96 N3        30.33S
KEMMERER, WY     N/A     34  32  93 N6        30.34F WCI  29

$$




USA.gov is the U.S. government's official web portal to all federal, state and local government web resources and services.